Орджоникидзе

Georgia     42˚01′01″N   43˚12′00″E
temp.,
°C
wind,
m/s
gust,
m/s
humid.,
%
clouds,
%
prec.,
mm/h
press.,
hPa
HPBL,
m
27 november, fri
fri2701:00+1˚w2498100 0.6 1028288
04:00+1˚wsw1393100 1.2 1029304
07:00ssw228398 1.8 103096
10:00+1˚s239099 2.6 1030162
13:00+3˚sse1288100 0.1 1029259
16:00+5˚e238275 0.1 1027322
19:00+1˚ese35885 0.0 1030193
22:00ese46754 0.0 1031177
28 november, sat
sat2801:00ese47680 0.0 1031213
04:00ese48680 0.0 1031231
07:00−1˚se46640 0.0 1030192
10:00+2˚ese47560 0.0 1029293
13:00+6˚e46580 0.0 1026405
16:00+6˚ese36660 0.0 1025325
19:00+2˚se35650 0.0 1027101
22:00+1˚se45592 0.0 1028102
29 november, sun
sun2901:00se456040 0.0 1028122
04:00se456153 0.0 1027111
07:00se45628 0.0 1027101
10:00+4˚ese35566 0.0 1026202
13:00+8˚e35530 0.0 1023331
16:00+7˚e35600 0.0 1022288
19:00+4˚se33710 0.0 102482
22:00+3˚se33668 0.0 102486
30 november, mon
mon3001:00+2˚se336711 0.0 102495
04:00+2˚se336924 0.0 102385
07:00+2˚se33710 0.0 102282
10:00+5˚se34650 0.0 1022180
13:00+9˚e35620 0.0 1019443
16:00+7˚e35730 0.0 1018403
19:00+4˚ese35840 0.0 1020118
22:00+3˚ese34780 0.0 1021121
1 december, tue
tue101:00+2˚se35710 0.0 1022110
04:00+2˚se35680 0.0 1022113
07:00+1˚se35690 0.0 1022117
10:00+4˚ese35620 0.0 1022322
13:00+7˚e35630 0.0 1021543
16:00+6˚e34710 0.0 1020443
19:00+3˚ese368030 0.0 1023159
22:00+3˚ese357465 0.0 1024155